| time (UTC) | temp C | wind direction | speed KPH | gust KPH | rain 1hr cm | rain 24hr cm | rain mn cm | humidity % | barometer mb |
| 20260510060031 | 26 | 110 | 16.1 | 38.6 | 0.00 | 0.00 | 0.00 | 50 | 1005.8 |
| 20260510054512 | 26 | 117 | 16.1 | 37.0 | 0.00 | 0.00 | 0.00 | 51 | 1006.0 |
| 20260510053009 | 26 | 96 | 16.1 | 33.8 | 0.00 | 0.00 | 0.00 | 51 | 1005.9 |
| 20260510051507 | 26 | 118 | 14.5 | 30.6 | 0.00 | 0.00 | 0.00 | 51 | 1006.0 |
| 20260510050003 | 26 | 114 | 12.9 | 32.2 | 0.00 | 0.00 | 0.00 | 51 | 1006.1 |
| 20260510044502 | 26 | 119 | 16.1 | 29.0 | 0.00 | 0.00 | 0.00 | 50 | 1006.0 |
| 20260510043005 | 26 | 117 | 14.5 | 30.6 | 0.00 | 0.00 | 0.00 | 48 | 1006.0 |
| 20260510041508 | 26 | 119 | 17.7 | 38.6 | 0.00 | 0.00 | 0.00 | 47 | 1006.1 |
| 20260510040101 | 27 | 105 | 19.3 | 37.0 | 0.00 | 0.00 | 0.00 | 46 | 1005.9 |
| 20260510034600 | 27 | 106 | 17.7 | 30.6 | 0.00 | 0.00 | 0.00 | 44 | 1006.1 |
| 20260510033100 | 27 | 105 | 17.7 | 32.2 | 0.00 | 0.00 | 0.00 | 43 | 1006.0 |
| 20260510031627 | 27 | 111 | 12.9 | 25.7 | 0.00 | 0.00 | 0.00 | 43 | 1006.1 |
| 20260510030057 | 27 | 123 | 16.1 | 25.7 | 0.00 | 0.00 | 0.00 | 41 | 1006.1 |
| 20260510024556 | 27 | 101 | 12.9 | 29.0 | 0.00 | 0.00 | 0.00 | 39 | 1005.9 |
| 20260510023100 | 28 | 105 | 17.7 | 27.4 | 0.00 | 0.00 | 0.00 | 39 | 1005.8 |
| 20260510021555 | 28 | 100 | 16.1 | 30.6 | 0.00 | 0.00 | 0.00 | 38 | 1005.8 |
| 20260510020054 | 28 | 111 | 17.7 | 32.2 | 0.00 | 0.00 | 0.00 | 37 | 1005.7 |
| 20260510014554 | 29 | 103 | 19.3 | 29.0 | 0.00 | 0.00 | 0.00 | 36 | 1005.6 |
| 20260510013054 | 30 | 92 | 17.7 | 32.2 | 0.00 | 0.00 | 0.00 | 34 | 1005.4 |
| 20260510011608 | 30 | 123 | 17.7 | 32.2 | 0.00 | 0.00 | 0.00 | 32 | 1005.3 |
| 20260510010104 | 31 | 109 | 17.7 | 32.2 | 0.00 | 0.00 | 0.00 | 31 | 1005.3 |
| 20260510004552 | 32 | 106 | 14.5 | 27.4 | 0.00 | 0.00 | 0.00 | 31 | 1005.1 |
| 20260510003051 | 32 | 117 | 11.3 | 30.6 | 0.00 | 0.00 | 0.00 | 29 | 1005.2 |
| 20260510001550 | 33 | 99 | 12.9 | 25.7 | 0.00 | 0.00 | 0.00 | 29 | 1005.3 |
| 20260510000050 | 33 | 86 | 12.9 | 27.4 | 0.00 | 0.00 | 0.00 | 29 | 1005.3 |
| 20260509234549 | 34 | 94 | 12.9 | 22.5 | 0.00 | 0.00 | 0.00 | 28 | 1005.3 |
| 20260509233048 | 34 | 92 | 9.7 | 20.9 | 0.00 | 0.00 | 0.00 | 28 | 1005.5 |
| 20260509231557 | 34 | 104 | 9.7 | 20.9 | 0.00 | 0.00 | 0.00 | 29 | 1005.5 |
| 20260509230046 | 35 | 141 | 16.1 | 32.2 | 0.00 | 0.00 | 0.00 | 27 | 1005.6 |
| 20260509224543 | 34 | 91 | 8.0 | 22.5 | 0.00 | 0.00 | 0.00 | 27 | 1005.8 |
| 20260509223042 | 35 | 116 | 6.4 | 24.1 | 0.00 | 0.00 | 0.00 | 26 | 1005.9 |
| 20260509221540 | 34 | 103 | 4.8 | 20.9 | 0.00 | 0.00 | 0.00 | 27 | 1006.1 |
| 20260509220038 | 35 | 144 | 14.5 | 27.4 | 0.00 | 0.00 | 0.00 | 26 | 1006.2 |
| 20260509214535 | 34 | 94 | 11.3 | 25.7 | 0.00 | 0.00 | 0.00 | 27 | 1006.5 |
| 20260509213035 | 35 | 94 | 9.7 | 22.5 | 0.00 | 0.00 | 0.00 | 26 | 1006.6 |
| 20260509211558 | 34 | 159 | 8.0 | 27.4 | 0.00 | 0.00 | 0.00 | 26 | 1006.6 |
| 20260509210027 | 35 | 115 | 12.9 | 29.0 | 0.00 | 0.00 | 0.00 | 25 | 1007.0 |
| 20260509204524 | 34 | 117 | 9.7 | 24.1 | 0.00 | 0.00 | 0.00 | 25 | 1007.1 |
| 20260509203037 | 33 | 140 | 8.0 | 24.1 | 0.00 | 0.00 | 0.00 | 26 | 1007.3 |
| 20260509201521 | 34 | 111 | 12.9 | 24.1 | 0.00 | 0.00 | 0.00 | 27 | 1007.6 |
| 20260509200015 | 33 | 101 | 3.2 | 22.5 | 0.00 | 0.00 | 0.00 | 29 | 1007.8 |
| 20260509194511 | 33 | 144 | 9.7 | 17.7 | 0.00 | 0.00 | 0.00 | 28 | 1007.8 |
| 20260509193009 | 33 | 140 | 12.9 | 27.4 | 0.00 | 0.00 | 0.00 | 31 | 1007.9 |
| 20260509191505 | 33 | 105 | 8.0 | 24.1 | 0.00 | 0.00 | 0.00 | 33 | 1008.1 |
| 20260509190106 | 32 | 120 | 9.7 | 32.2 | 0.00 | 0.00 | 0.00 | 35 | 1008.1 |
| 20260509184556 | 32 | 134 | 11.3 | 24.1 | 0.00 | 0.00 | 0.00 | 35 | 1008.4 |
| 20260509183055 | 33 | 90 | 6.4 | 19.3 | 0.00 | 0.00 | 0.00 | 34 | 1008.7 |
| 20260509181604 | 32 | 144 | 6.4 | 35.4 | 0.00 | 0.00 | 0.00 | 36 | 1008.9 |
| 20260509180043 | 32 | 96 | 16.1 | 27.4 | 0.00 | 0.00 | 0.00 | 37 | 1009.2 |
| 20260509174541 | 31 | 111 | 12.9 | 22.5 | 0.00 | 0.00 | 0.00 | 38 | 1009.4 |
| 20260509173035 | 30 | 111 | 11.3 | 25.7 | 0.00 | 0.00 | 0.00 | 41 | 1009.4 |
| 20260509171532 | 30 | 101 | 9.7 | 25.7 | 0.00 | 0.00 | 0.00 | 42 | 1009.7 |
| 20260509170031 | 30 | 144 | 9.7 | 29.0 | 0.00 | 0.00 | 0.00 | 43 | 1009.7 |
| 20260509164528 | 29 | 140 | 14.5 | 24.1 | 0.00 | 0.00 | 0.00 | 46 | 1009.7 |
| 20260509163029 | 28 | 143 | 12.9 | 25.7 | 0.00 | 0.00 | 0.00 | 48 | 1009.8 |
| 20260509161521 | 27 | 140 | 14.5 | 29.0 | 0.00 | 0.00 | 0.00 | 52 | 1010.0 |
| 20260509160018 | 27 | 129 | 14.5 | 27.4 | 0.00 | 0.00 | 0.00 | 56 | 1010.2 |
| 20260509154516 | 26 | 125 | 12.9 | 25.7 | 0.00 | 0.00 | 0.00 | 60 | 1010.3 |
| 20260509153019 | 26 | 148 | 14.5 | 29.0 | 0.00 | 0.00 | 0.00 | 62 | 1010.4 |
| 20260509151508 | 25 | 144 | 12.9 | 25.7 | 0.00 | 0.00 | 0.00 | 64 | 1010.3 |
| 20260509150006 | 24 | 128 | 11.3 | 27.4 | 0.00 | 0.00 | 0.00 | 68 | 1010.5 |
| 20260509144503 | 23 | 100 | 9.7 | 20.9 | 0.00 | 0.00 | 0.00 | 72 | 1010.6 |
| 20260509143109 | 23 | 132 | 14.5 | 24.1 | 0.00 | 0.00 | 0.00 | 74 | 1010.5 |
| 20260509141555 | 22 | 136 | 11.3 | 24.1 | 0.00 | 0.00 | 0.00 | 76 | 1010.7 |
| 20260509140105 | 21 | 134 | 12.9 | 22.5 | 0.00 | 0.00 | 0.00 | 78 | 1011.1 |
| 20260509134557 | 21 | 118 | 4.8 | 25.7 | 0.00 | 0.00 | 0.00 | 81 | 1011.1 |
| 20260509133102 | 20 | 120 | 8.0 | 20.9 | 0.00 | 0.00 | 0.00 | 83 | 1011.1 |
| 20260509131555 | 20 | 129 | 6.4 | 16.1 | 0.00 | 0.00 | 0.00 | 86 | 1011.1 |
| 20260509130050 | 19 | 152 | 3.2 | 11.3 | 0.00 | 0.00 | 0.00 | 89 | 1011.1 |
| 20260509124553 | 18 | 129 | 1.6 | 11.3 | 0.00 | 0.00 | 0.00 | 89 | 1010.9 |
| 20260509123047 | 18 | 111 | 4.8 | 14.5 | 0.00 | 0.00 | 0.00 | 89 | 1010.8 |
| 20260509121543 | 18 | 130 | 6.4 | 16.1 | 0.00 | 0.00 | 0.00 | 89 | 1010.4 |
| 20260509120042 | 18 | 109 | 8.0 | 16.1 | 0.00 | 0.00 | 0.00 | 89 | 1010.1 |
| 20260509114552 | 19 | 105 | 8.0 | 19.3 | 0.00 | 0.00 | 0.00 | 88 | 1009.9 |
| 20260509113043 | 19 | 103 | 6.4 | 12.9 | 0.00 | 0.00 | 0.00 | 88 | 1009.8 |
| 20260509111539 | 19 | 107 | 6.4 | 24.1 | 0.00 | 0.00 | 0.00 | 88 | 1009.3 |
| 20260509110037 | 19 | 113 | 12.9 | 22.5 | 0.00 | 0.00 | 0.00 | 89 | 1009.3 |
| 20260509104537 | 19 | 107 | 9.7 | 19.3 | 0.00 | 0.00 | 0.00 | 90 | 1009.3 |
| 20260509103036 | 19 | 118 | 9.7 | 19.3 | 0.00 | 0.00 | 0.00 | 90 | 1009.3 |
| 20260509101533 | 18 | 105 | 11.3 | 17.7 | 0.00 | 0.00 | 0.00 | 90 | 1009.3 |
| 20260509100031 | 18 | 95 | 8.0 | 20.9 | 0.00 | 0.00 | 0.00 | 90 | 1009.2 |
| 20260509094528 | 18 | 84 | 6.4 | 12.9 | 0.00 | 0.00 | 0.00 | 89 | 1009.2 |
| 20260509093027 | 18 | 87 | 4.8 | 9.7 | 0.00 | 0.00 | 0.00 | 87 | 1009.3 |
| 20260509091532 | 18 | 92 | 6.4 | 12.9 | 0.00 | 0.00 | 0.00 | 87 | 1009.2 |
| 20260509090025 | 18 | 83 | 4.8 | 12.9 | 0.00 | 0.00 | 0.00 | 86 | 1009.2 |
| 20260509084527 | 18 | 97 | 4.8 | 12.9 | 0.00 | 0.00 | 0.00 | 84 | 1009.5 |
| 20260509083021 | 19 | 83 | 6.4 | 16.1 | 0.00 | 0.00 | 0.00 | 82 | 1009.7 |
| 20260509081518 | 19 | 84 | 3.2 | 8.0 | 0.00 | 0.00 | 0.00 | 80 | 1010.0 |
| 20260509080023 | 19 | 63 | 8.0 | 16.1 | 0.00 | 0.00 | 0.00 | 81 | 1010.2 |
| 20260509074513 | 18 | 70 | 14.5 | 19.3 | 0.00 | 0.00 | 0.00 | 82 | 1010.1 |
| 20260509073028 | 18 | 73 | 9.7 | 16.1 | 0.00 | 0.00 | 0.00 | 84 | 1010.1 |
| 20260509071508 | 17 | 51 | 0.0 | 6.4 | 0.00 | 0.00 | 0.00 | 82 | 1009.3 |
| 20260509070006 | 18 | 43 | 0.0 | 0.0 | 0.00 | 0.00 | 0.00 | 81 | 1009.3 |
| 20260509064504 | 18 | 133 | 4.8 | 8.0 | 0.00 | 0.00 | 0.00 | 81 | 1009.1 |
| 20260509063101 | 19 | 135 | 0.0 | 0.0 | 0.00 | 0.00 | 0.00 | 76 | 1009.4 |
| 20260509061559 | 20 | 135 | 0.0 | 3.2 | 0.00 | 0.00 | 0.00 | 76 | 1009.5 |